Harvey, ND

11:52 PM CDT on June 25, 2017 (GMT -0500)
Harvey

Weather History for K5H4 - October, 2011

Change the Weather History Date:

Thursday, October 13, 2011

  Actual Average (KRUG) Record (KRUG)
Temperature  
Mean Temperature 44 °F -  
Max Temperature 53 °F 56 °F 85 °F (1958)
Min Temperature 35 °F 33 °F 15 °F (1979)
Degree Days  
Heating Degree Days 21    
Moisture  
Dew Point 43 °F    
Average Humidity 94    
Maximum Humidity 100    
Minimum Humidity 72    
Precipitation  
Precipitation 0.06 in - - ()
Sea Level Pressure  
Sea Level Pressure 29.76 in    
Wind  
Wind Speed 9 mph (WNW)    
Max Wind Speed 18 mph    
Max Gust Speed 26 mph    
Visibility 7 miles    
Events Fog , Rain , Thunderstorm    
Averages and records for this station are not official NWS values.
T = Trace of Precipitation, MM = Missing Value Source: NWS Daily Summary

Daily Weather History Graph

Daily Weather History Graph

Search for Another Location

Airport or City:

Trip Planner

Search our weather history database for the weather conditions in past years. The results will help you decide how hot, cold, wet, or windy it might be!

Date:

Astronomy

Oct. 13, 2011 Rise Set
Actual Time 7:55 AM CDT 6:55 PM CDT
Civil Twilight 7:24 AM CDT 7:26 PM CDT
Nautical Twilight 6:48 AM CDT 8:02 PM CDT
Astronomical Twilight 6:12 AM CDT 8:38 PM CDT
Moon 7:19 PM CDT (10/13) 9:40 AM CDT (10/13)
Length of Visible Light 12h 02m
Length of Day
11h 00m
Full, 98% of the Moon is Illuminated
Oct 13
Full
Oct 19
Last Quarter
Oct 26
New
Nov 2
First Quarter
Nov 10
Full

Hourly Weather History & Observations

Time (CDT) Temp. Windchill Dew Point Humidity Pressure Visibility Wind Dir Wind Speed Gust Speed Precip Events Conditions
12:15 AM 41.0 °F 36.4 °F 41.0 °F 100% 29.80 in 8.0 mi NW 6.9 mph - N/A   Clear
12:35 AM 41.0 °F 35.8 °F 41.0 °F 100% 29.80 in 7.0 mi WNW 8.1 mph - N/A   Clear
12:55 AM 41.0 °F 35.8 °F 41.0 °F 100% 29.81 in 6.0 mi WNW 8.1 mph - N/A   Clear
1:15 AM 42.8 °F 38.0 °F 42.8 °F 100% 29.81 in 8.0 mi WNW 8.1 mph - N/A   Clear
1:55 AM 39.2 °F 33.6 °F 39.2 °F 100% 29.81 in 5.0 mi WNW 8.1 mph - N/A   Clear
2:35 AM 39.2 °F 33.6 °F 39.2 °F 100% 29.81 in 5.0 mi NW 8.1 mph - N/A   Clear
3:55 AM 37.4 °F 33.8 °F 37.4 °F 100% 29.80 in 0.8 mi WSW 4.6 mph - N/A   Mist
4:15 AM 37.4 °F 32.1 °F 37.4 °F 100% 29.81 in 0.2 mi WSW 6.9 mph - N/A   Overcast
4:35 AM 39.2 °F 35.9 °F 39.2 °F 100% 29.80 in 0.2 mi WSW 4.6 mph - N/A   Overcast
5:15 AM 39.2 °F - 39.2 °F 100% 29.79 in 0.2 mi Calm Calm - N/A   Overcast
5:55 AM 37.4 °F 33.8 °F 37.4 °F 100% 29.79 in 0.2 mi WSW 4.6 mph - N/A   Overcast
6:15 AM 35.6 °F 32.8 °F 35.6 °F 100% 29.79 in 0.2 mi SW 3.5 mph - N/A Fog Fog
6:55 AM 37.4 °F 32.8 °F 37.4 °F 100% 29.79 in 0.2 mi WSW 5.8 mph - N/A   Overcast
7:15 AM 35.6 °F - 35.6 °F 100% 29.78 in 0.2 mi Calm Calm - N/A Fog Fog
7:35 AM 35.6 °F - 35.6 °F 100% 29.78 in 0.5 mi Calm Calm - N/A Fog Fog
7:55 AM 35.6 °F - 35.6 °F 100% 29.78 in 0.5 mi Calm Calm - N/A   Overcast
8:35 AM 39.2 °F - 39.2 °F 100% 29.77 in 5.0 mi Calm Calm - N/A   Mostly Cloudy
8:55 AM 39.2 °F 37.0 °F 39.2 °F 100% 29.77 in 6.0 mi NW 3.5 mph - N/A   Mostly Cloudy
9:15 AM 41.0 °F 37.1 °F 41.0 °F 100% 29.77 in 8.0 mi SW 5.8 mph - N/A   Mostly Cloudy
9:35 AM 42.8 °F 38.0 °F 42.8 °F 100% 29.78 in 3.0 mi WNW 8.1 mph - N/A   Scattered Clouds
9:55 AM 42.8 °F 41.1 °F 42.8 °F 100% 29.76 in 2.0 mi South 3.5 mph - 0.01 in Rain Light Rain
10:15 AM 42.8 °F 40.1 °F 42.8 °F 100% 29.76 in 7.0 mi SSW 4.6 mph - N/A   Scattered Clouds
10:35 AM 44.6 °F 41.4 °F 44.6 °F 100% 29.76 in 7.0 mi WSW 5.8 mph - N/A   Scattered Clouds
10:55 AM 44.6 °F 40.7 °F 44.6 °F 100% 29.76 in 10.0 mi WSW 6.9 mph - N/A   Mostly Cloudy
11:15 AM 48.2 °F - 48.2 °F 100% 29.74 in 10.0 mi SW 10.4 mph - N/A   Scattered Clouds
11:35 AM 48.2 °F - 48.2 °F 100% 29.75 in 9.0 mi West 10.4 mph - N/A   Mostly Cloudy
11:55 AM 48.2 °F - 48.2 °F 100% 29.75 in 5.0 mi West 11.5 mph - N/A   Overcast
12:15 PM 46.4 °F 42.4 °F 46.4 °F 100% 29.75 in 5.0 mi WNW 8.1 mph - N/A Rain Light Rain
12:35 PM 48.2 °F - 48.2 °F 100% 29.75 in 10.0 mi WNW 11.5 mph - N/A   Overcast
12:55 PM 50.0 °F - 48.2 °F 94% 29.75 in 10.0 mi WNW 13.8 mph 17.3 mph N/A   Mostly Cloudy
1:15 PM 50.0 °F - 48.2 °F 94% 29.75 in 10.0 mi WNW 13.8 mph - N/A   Mostly Cloudy
1:35 PM 50.0 °F - 48.2 °F 94% 29.75 in 10.0 mi WNW 15.0 mph - N/A   Mostly Cloudy
1:55 PM 50.0 °F - 46.4 °F 87% 29.74 in 10.0 mi WNW 17.3 mph - N/A   Mostly Cloudy
2:15 PM 48.2 °F - 48.2 °F 100% 29.74 in 4.0 mi WNW 12.7 mph - 0.01 in Rain Light Rain
2:35 PM 48.2 °F - 48.2 °F 100% 29.74 in 10.0 mi WNW 18.4 mph - 0.01 in   Partly Cloudy
2:55 PM 50.0 °F - 48.2 °F 94% 29.73 in 9.0 mi NW 15.0 mph 20.7 mph 0.01 in   Scattered Clouds
3:15 PM 50.0 °F - 46.4 °F 87% 29.73 in 10.0 mi WNW 18.4 mph 24.2 mph N/A Rain , Thunderstorm Light Rain
3:35 PM 51.8 °F - 46.4 °F 82% 29.73 in 10.0 mi WNW 13.8 mph - N/A   Scattered Clouds
3:55 PM 53.6 °F - 44.6 °F 72% 29.73 in 10.0 mi NW 17.3 mph 23.0 mph N/A   Mostly Cloudy
4:15 PM 53.6 °F - 44.6 °F 72% 29.73 in 10.0 mi WNW 18.4 mph - N/A   Scattered Clouds
4:35 PM 50.0 °F - 44.6 °F 82% 29.74 in 10.0 mi WNW 15.0 mph 19.6 mph N/A   Partly Cloudy
4:55 PM 53.6 °F - 44.6 °F 72% 29.73 in 10.0 mi NW 17.3 mph 21.9 mph N/A   Scattered Clouds
5:15 PM 51.8 °F - 44.6 °F 76% 29.73 in 10.0 mi West 15.0 mph 21.9 mph N/A   Scattered Clouds
5:35 PM 50.0 °F - 46.4 °F 87% 29.73 in 10.0 mi West 13.8 mph 21.9 mph N/A   Partly Cloudy
5:55 PM 50.0 °F - 44.6 °F 82% 29.74 in 10.0 mi WNW 17.3 mph - N/A   Mostly Cloudy
6:15 PM 50.0 °F - 44.6 °F 82% 29.75 in 10.0 mi NW 12.7 mph 18.4 mph N/A   Overcast
6:35 PM 50.0 °F - 44.6 °F 82% 29.75 in 10.0 mi NW 17.3 mph 26.5 mph N/A   Overcast
6:55 PM 48.2 °F - 44.6 °F 87% 29.75 in 10.0 mi NW 16.1 mph 23.0 mph N/A   Overcast
7:15 PM 48.2 °F - 44.6 °F 87% 29.76 in 10.0 mi NW 17.3 mph 21.9 mph N/A   Overcast
7:35 PM 48.2 °F - 46.4 °F 93% 29.76 in 10.0 mi WNW 12.7 mph - N/A   Mostly Cloudy
8:35 PM 46.4 °F 40.4 °F 44.6 °F 93% 29.78 in 3.0 mi NNW 13.8 mph 26.5 mph 0.04 in Rain Rain
9:15 PM 46.4 °F 39.8 °F 46.4 °F 100% 29.78 in 10.0 mi WNW 16.1 mph 20.7 mph N/A   Overcast
9:35 PM 46.4 °F 39.8 °F 46.4 °F 100% 29.78 in 10.0 mi WNW 16.1 mph 21.9 mph N/A   Overcast
9:55 PM 46.4 °F 40.1 °F 46.4 °F 100% 29.78 in 10.0 mi WNW 15.0 mph - N/A   Overcast
10:15 PM 46.4 °F 40.7 °F 46.4 °F 100% 29.78 in 10.0 mi WNW 12.7 mph - N/A   Overcast
10:35 PM 46.4 °F 40.1 °F 46.4 °F 100% 29.78 in 10.0 mi WNW 15.0 mph 18.4 mph N/A   Overcast
10:55 PM 46.4 °F 41.1 °F 46.4 °F 100% 29.78 in 10.0 mi WNW 11.5 mph 20.7 mph N/A   Overcast
11:15 PM 46.4 °F 39.5 °F 46.4 °F 100% 29.79 in 10.0 mi WNW 17.3 mph 21.9 mph N/A   Overcast
11:35 PM 46.4 °F 40.7 °F 46.4 °F 100% 29.79 in 10.0 mi WNW 12.7 mph 19.6 mph N/A   Overcast
11:55 PM 46.4 °F 39.0 °F 46.4 °F 100% 29.79 in 10.0 mi NW 19.6 mph 25.3 mph N/A   Overcast